Lid_Strength_Index
2 -1 -0 -1 -2 -2 -2 -2 -2 -1 -0 -1 0 -0 -0 0 -1 -1 -2 -2 -1 -1 -1 -1 -1 -1 -1 -1 -2 -2 -1 -1 -2 -1 -1 -1 -1 -1 -1 -1 -2 -1 -1
2 0 -1 0 -2 -2 -2 -2 -2 -2 -1 -1 -0 0 1 -0 -1 0 -0 -2 -2 -2 -1 -1 -1 -1 -1 -1 -1 -1 -1 -1 -2 -2 -2 -1 -1 -1 -1 -1 -1 -1 -1
3 2 0 0 -1 -2 -2 -2 -2 -2 -2 -1 0 1 1 0 0 0 -0 -0 -1 -2 -1 -1 -1 -1 -1 -1 -1 -1 -1 -1 -1 -1 -2 -1 -1 -1 -1 -0 -0 -1 -1
3 2 2 -0 -1 -1 -1 -2 -1 -1 -2 -2 -1 0 0 -0 -0 0 0 -1 -1 -1 -1 -1 -1 -1 -1 -1 -1 -1 -1 -1 -1 -1 -1 -1 -1 -0 -0 -0 -1 -1 -1
3 3 2 0 -1 -1 -1 -1 -2 -2 -1 -1 -1 -1 -0 0 1 1 0 0 -1 -1 -1 -1 -1 -1 -1 -1 -1 -1 -1 -1 -1 -1 -1 -1 -1 -0 -0 -0 -0 -0 -1
4 3 2 0 -0 -1 -1 -1 -1 -2 -2 -2 -2 -2 -1 -1 0 1 0 -0 -1 -1 -1 -1 -1 -1 -1 -1 -1 -1 -1 -0 -1 -1 -0 -0 0 0 1 0 -0 -1 0
4 3 2 1 0 -0 -1 -1 -1 -1 -2 -2 -2 -2 -2 -1 -0 0 1 0 -1 -1 -1 -1 -1 -1 -1 -1 -1 -1 -0 0 -0 -0 0 0 0 0 -0 -1 -1 -0 1
4 3 2 2 1 1 -0 -1 -2 -1 -2 -2 -2 -2 -2 -2 -0 1 1 -0 -0 -1 -1 -1 -1 -1 -1 -1 -1 -0 0 1 1 1 1 1 -0 -0 -1 -1 0 1 1
4 4 3 2 2 1 1 -0 -1 -1 -2 -1 -2 -1 -1 -1 -1 0 1 0 0 0 -1 -1 -1 -1 -1 -1 -1 1 2 2 1 1 2 1 0 -0 -1 -0 1 1 2
4 4 4 3 2 1 1 -0 0 -0 -1 -1 -1 -0 -1 -1 -1 1 3 2 1 1 1 -0 -0 -0 -1 -1 1 2 3 3 2 2 2 1 1 0 -1 0 1 2 2
5 5 4 4 3 2 1 0 -0 -1 -1 -1 -1 0 -0 -0 0 1 3 3 3 2 1 1 1 2 2 2 3 3 3 3 3 3 2 1 1 0 -0 1 2 2 2
7 5 5 4 3 2 2 0 -0 -1 -1 -1 -1 -1 -0 0 1 2 2 4 5 6 3 2 3 3 4 4 4 4 4 3 4 3 1 1 1 0 -0 1 2 2 2
7 6 5 5 3 3 2 0 0 -1 -1 -1 -1 -1 -1 0 1 1 1 1 3 5 4 3 5 5 4 4 5 5 4 4 2 2 2 2 1 0 0 1 2 2 3
8 7 5 4 4 3 1 0 1 -1 -1 -1 -1 -1 -1 -1 1 2 2 2 2 3 4 5 5 5 5 5 5 5 5 4 3 2 3 3 1 1 1 2 2 3 3
9 7 6 4 4 3 2 0 -0 -1 -1 -1 -1 0 0 1 2 2 2 2 3 3 3 5 6 6 6 6 6 6 6 5 4 4 3 4 2 1 1 2 2 3 3
10 9 7 5 4 3 2 1 1 -1 -1 -0 0 1 1 1 2 2 3 3 3 3 3 4 6 7 7 7 8 8 8 7 6 5 5 4 5 3 2 2 2 2 3
10 9 9 7 4 3 2 1 1 -0 0 1 1 1 3 2 2 3 3 3 3 3 3 4 5 6 7 9 10 9 9 8 8 8 8 7 7 7 3 2 2 3 3
10 10 9 8 6 3 2 2 1 1 1 1 1 2 2 2 2 3 3 4 3 3 3 4 5 7 8 9 10 11 11 10 9 9 9 10 9 9 7 4 3 3 2
10 10 10 9 8 6 4 1 1 1 1 1 2 3 3 3 3 2 3 4 4 3 4 4 5 6 9 9 10 11 11 11 10 10 10 11 11 10 10 8 6 5 4
10 10 9 8 8 7 6 4 4 3 3 3 2 3 3 4 3 3 3 3 3 4 4 5 6 7 8 9 10 11 11 11 11 11 10 10 11 11 11 10 8 7 5
10 10 9 8 7 7 7 7 6 6 5 5 5 4 4 4 4 4 5 3 3 3 5 5 7 8 9 9 10 11 11 11 12 12 11 11 11 10 10 10 9 7 7
10 10 8 7 6 6 5 5 5 5 5 6 5 5 5 5 5 5 6 5 4 3 4 6 7 8 8 8 10 10 12 12 11 12 12 12 12 11 11 10 10 9 8
10 9 9 7 6 5 4 4 3 3 4 5 6 6 5 5 5 6 6 5 5 5 4 5 6 7 9 8 8 9 13 13 12 12 12 12 11 11 11 11 10 10 9
9 8 7 6 5 4 4 4 5 5 7 7 6 5 5 6 6 6 7 6 5 5 5 5 5 7 8 9 8 7 8 9 12 14 13 13 12 11 11 11 11 11 10
9 8 6 5 5 5 4 5 5 6 6 6 6 6 6 6 6 6 6 7 6 5 5 5 5 6 6 8 8 8 8 9 9 11 13 13 12 12 11 11 11 11 11
8 7 6 5 6 5 5 5 5 6 6 6 5 5 6 6 6 7 6 6 6 6 5 5 5 6 6 6 7 8 9 10 10 10 12 13 12 12 11 11 11 11 10